Change the Weather History Date:

Monday, December 31, 2012

  Actual Average (KMEM) Record (KMEM)
Temperature  
Mean Temperature 40 °F 41 °F  
Max Temperature 46 °F 50 °F 79 °F (1951)
Min Temperature 33 °F 33 °F 9 °F (1976)
Degree Days  
Heating Degree Days 26 24  
Month to date heating degree days 667  
Since 1 July heating degree days 1164  
Cooling Degree Days 0 0  
Month to date cooling degree days 2  
Year to date cooling degree days 2258  
Moisture  
Dew Point 35 °F    
Average Humidity 82    
Maximum Humidity 100    
Minimum Humidity 61    
Precipitation  
Precipitation 0.46 in 0.16 in 3.23 in (1944)
Month to date precipitation 5.74  
Year to date precipitation 53.68  
Snow  
Snow 0.00 in 0.00 in 2.00 in (2000)
Month to date snowfall 0.2  
Since 1 July snowfall 0.2  
Snow Depth -    
Sea Level Pressure  
Sea Level Pressure 30.19 in    
Wind  
Wind Speed 5 mph (SE)    
Max Wind Speed 15 mph    
Max Gust Speed 17 mph    
Visibility 9 miles    
Events Rain    
T = Trace of Precipitation, MM = Missing Value Source: NWS Daily Summary

Daily Weather History Graph

Daily Weather History Graph

Search for Another Location

Airport or City:

Trip Planner

Search our weather history database for the weather conditions in past years. The results will help you decide how hot, cold, wet, or windy it might be!

Date:

Astronomy

Dec. 31, 2012 Rise Set
Actual Time 7:08 AM CST 5:01 PM CST
Civil Twilight 6:40 AM CST 5:28 PM CST
Nautical Twilight 6:09 AM CST 6:00 PM CST
Astronomical Twilight 5:38 AM CST 6:31 PM CST
Moon 8:22 PM CST (12/31) 8:58 AM CST (12/31)
Length of Visible Light 10h 48m
Length of Day
9h 52m
Waning Gibbous, 90% of the Moon is Illuminated
Dec 31
Waning Gibbous
Jan 4
Last Quarter
Jan 11
New
Jan 18
First Quarter
Jan 26
Full

Hourly Weather History & Observations

Time (CST) Temp. Windchill Dew Point Humidity Pressure Visibility Wind Dir Wind Speed Gust Speed Precip Events Conditions
12:15 AM 33.8 °F - 32.0 °F 93% 30.35 in 10.0 mi Calm Calm - N/A   Clear
12:35 AM 35.6 °F - 32.0 °F 87% 30.34 in 10.0 mi Calm Calm - N/A   Clear
12:55 AM 35.6 °F 32.8 °F 32.0 °F 87% 30.35 in 10.0 mi SSE 3.5 mph - N/A   Clear
1:15 AM 35.6 °F 31.7 °F 32.0 °F 87% 30.34 in 10.0 mi SSE 4.6 mph - N/A   Clear
1:35 AM 35.6 °F 31.7 °F 32.0 °F 87% 30.33 in 10.0 mi SSE 4.6 mph - N/A   Clear
1:55 AM 35.6 °F 32.8 °F 32.0 °F 87% 30.33 in 10.0 mi SSE 3.5 mph - N/A   Scattered Clouds
2:15 AM 35.6 °F 32.8 °F 32.0 °F 87% 30.33 in 10.0 mi SE 3.5 mph - N/A   Scattered Clouds
2:35 AM 35.6 °F 32.8 °F 32.0 °F 87% 30.33 in 10.0 mi SSE 3.5 mph - N/A   Mostly Cloudy
2:55 AM 35.6 °F - 32.0 °F 87% 30.33 in 10.0 mi Calm Calm - N/A   Scattered Clouds
3:15 AM 35.6 °F 32.8 °F 32.0 °F 87% 30.34 in 10.0 mi South 3.5 mph - N/A   Clear
3:35 AM 35.6 °F - 32.0 °F 87% 30.33 in 10.0 mi Calm Calm - N/A   Clear
3:55 AM 35.6 °F 31.7 °F 32.0 °F 87% 30.33 in 10.0 mi SSE 4.6 mph - N/A   Clear
4:15 AM 35.6 °F 32.8 °F 32.0 °F 87% 30.33 in 10.0 mi SE 3.5 mph - N/A   Clear
4:35 AM 35.6 °F - 32.0 °F 87% 30.32 in 10.0 mi Calm Calm - N/A   Clear
4:55 AM 35.6 °F 32.8 °F 32.0 °F 87% 30.31 in 10.0 mi ESE 3.5 mph - N/A   Clear
5:15 AM 35.6 °F - 32.0 °F 87% 30.32 in 10.0 mi Calm Calm - N/A   Clear
5:35 AM 35.6 °F 32.8 °F 32.0 °F 87% 30.33 in 10.0 mi SE 3.5 mph - N/A   Clear
5:55 AM 35.6 °F - 32.0 °F 87% 30.32 in 10.0 mi Calm Calm - N/A   Clear
6:35 AM 35.6 °F 30.7 °F 32.0 °F 87% 30.32 in 10.0 mi SSE 5.8 mph - N/A   Mostly Cloudy
6:55 AM 35.6 °F 31.7 °F 32.0 °F 87% 30.32 in 10.0 mi SSE 4.6 mph - N/A   Overcast
7:15 AM 37.4 °F 34.9 °F 32.0 °F 81% 30.33 in 10.0 mi South 3.5 mph - N/A   Overcast
7:35 AM 37.4 °F 33.8 °F 32.0 °F 81% 30.33 in 10.0 mi SSE 4.6 mph - N/A   Overcast
8:15 AM 37.4 °F 32.8 °F 32.0 °F 81% 30.30 in 10.0 mi SE 5.8 mph - N/A   Overcast
8:35 AM 37.4 °F 32.1 °F 32.0 °F 81% 30.31 in 10.0 mi SSE 6.9 mph - N/A   Overcast
8:55 AM 37.4 °F 32.8 °F 32.0 °F 81% 30.31 in 10.0 mi SSE 5.8 mph - N/A   Overcast
9:15 AM 39.2 °F 33.6 °F 32.0 °F 75% 30.29 in 10.0 mi SSE 8.1 mph - N/A   Mostly Cloudy
9:35 AM 39.2 °F 32.5 °F 32.0 °F 75% 30.28 in 10.0 mi SE 10.4 mph - N/A   Mostly Cloudy
9:55 AM 41.0 °F 34.7 °F 32.0 °F 70% 30.28 in 10.0 mi SSE 10.4 mph - N/A   Mostly Cloudy
10:15 AM 41.0 °F 35.2 °F 32.0 °F 70% 30.27 in 10.0 mi SSE 9.2 mph - N/A   Scattered Clouds
10:35 AM 41.0 °F 34.7 °F 32.0 °F 70% 30.26 in 10.0 mi SSE 10.4 mph - N/A   Scattered Clouds
10:55 AM 42.8 °F 37.0 °F 32.0 °F 66% 30.26 in 10.0 mi South 10.4 mph - N/A   Clear
11:15 AM 42.8 °F 36.6 °F 32.0 °F 66% 30.25 in 10.0 mi SSE 11.5 mph - N/A   Scattered Clouds
11:35 AM 42.8 °F 37.5 °F 33.8 °F 70% 30.21 in 10.0 mi SSE 9.2 mph - N/A   Scattered Clouds
11:55 AM 44.6 °F 40.7 °F 33.8 °F 66% 30.20 in 10.0 mi SSE 6.9 mph - N/A   Mostly Cloudy
12:15 PM 44.6 °F 40.7 °F 33.8 °F 66% 30.20 in 10.0 mi South 6.9 mph - N/A   Overcast
12:35 PM 44.6 °F 41.4 °F 32.0 °F 61% 30.19 in 10.0 mi South 5.8 mph - N/A   Overcast
12:55 PM 44.6 °F 43.1 °F 33.8 °F 66% 30.18 in 10.0 mi SSE 3.5 mph - N/A   Overcast
1:15 PM 44.6 °F 43.1 °F 33.8 °F 66% 30.18 in 10.0 mi SE 3.5 mph - N/A   Overcast
1:35 PM 44.6 °F 41.4 °F 33.8 °F 66% 30.15 in 10.0 mi SE 5.8 mph - N/A   Overcast
1:55 PM 44.6 °F 41.4 °F 33.8 °F 66% 30.14 in 10.0 mi SE 5.8 mph - N/A   Mostly Cloudy
2:15 PM 44.6 °F 40.7 °F 33.8 °F 66% 30.13 in 10.0 mi SE 6.9 mph - N/A   Overcast
2:35 PM 44.6 °F 40.2 °F 35.6 °F 71% 30.13 in 10.0 mi SE 8.1 mph - N/A   Overcast
2:55 PM 44.6 °F 40.2 °F 35.6 °F 71% 30.10 in 10.0 mi SE 8.1 mph - N/A   Overcast
3:15 PM 44.6 °F 39.7 °F 35.6 °F 71% 30.10 in 10.0 mi SE 9.2 mph - N/A   Overcast
3:35 PM 44.6 °F 40.2 °F 37.4 °F 76% 30.09 in 10.0 mi SE 8.1 mph - N/A Rain Light Rain
3:55 PM 44.6 °F 40.7 °F 37.4 °F 76% 30.07 in 10.0 mi SE 6.9 mph - N/A Rain Rain
4:15 PM 44.6 °F 38.8 °F 37.4 °F 76% 30.06 in 10.0 mi SE 11.5 mph - 0.01 in Rain Rain
4:35 PM 44.6 °F 38.4 °F 39.2 °F 81% 30.03 in 10.0 mi SE 12.7 mph - 0.01 in   Drizzle
4:55 PM 44.6 °F 38.8 °F 39.2 °F 81% 30.05 in 10.0 mi SE 11.5 mph - 0.02 in Rain Light Rain
5:15 PM 44.6 °F 38.8 °F 41.0 °F 87% 30.04 in 10.0 mi SE 11.5 mph - N/A Rain Rain
5:35 PM 44.6 °F 38.8 °F 41.0 °F 87% 30.04 in 10.0 mi SE 11.5 mph - 0.01 in   Drizzle
5:55 PM 44.6 °F 39.2 °F 41.0 °F 87% 30.04 in 10.0 mi SE 10.4 mph - 0.01 in   Light Drizzle
6:15 PM 44.6 °F 38.8 °F 42.8 °F 93% 30.03 in 10.0 mi SSE 11.5 mph - N/A   Light Drizzle
6:35 PM 44.6 °F 38.1 °F 42.8 °F 93% 30.00 in 10.0 mi SSE 13.8 mph - N/A Rain Rain
6:55 PM 46.4 °F 40.4 °F 42.8 °F 87% 30.00 in 10.0 mi SSE 13.8 mph - 0.01 in Rain Light Rain
7:15 PM 46.4 °F 40.1 °F 42.8 °F 87% 30.01 in 10.0 mi South 15.0 mph - 0.01 in Rain Rain
7:35 PM 46.4 °F 41.1 °F 42.8 °F 87% 30.06 in 5.0 mi West 11.5 mph 17.3 mph 0.05 in Rain Rain
7:55 PM 44.6 °F 40.7 °F 42.8 °F 93% 30.06 in 4.0 mi NW 6.9 mph - 0.11 in Rain Heavy Rain
8:35 PM 42.8 °F 36.2 °F 42.8 °F 100% 30.08 in 5.0 mi NW 12.7 mph - 0.09 in Rain Rain
8:55 PM 41.0 °F 34.7 °F 41.0 °F 100% 30.06 in 7.0 mi North 10.4 mph - 0.11 in Rain Rain
9:35 PM 41.0 °F 34.3 °F 39.2 °F 93% 30.08 in 5.0 mi NNW 11.5 mph - 0.02 in   Light Drizzle
9:55 PM 41.0 °F 36.4 °F 39.2 °F 93% 30.07 in 4.0 mi NNE 6.9 mph - 0.05 in Rain Rain
10:15 PM 41.0 °F 38.0 °F 39.2 °F 93% 30.06 in 4.0 mi NE 4.6 mph - 0.01 in Rain Rain
10:35 PM 41.0 °F 36.4 °F 39.2 °F 93% 30.04 in 3.0 mi ESE 6.9 mph - 0.03 in Rain Light Rain
10:55 PM 41.0 °F 34.7 °F 41.0 °F 100% 30.04 in 2.5 mi ESE 10.4 mph - 0.07 in Rain Heavy Rain
11:15 PM 42.8 °F - 41.0 °F 93% 30.04 in 3.0 mi Calm Calm - 0.03 in Rain Rain
11:35 PM 42.8 °F - 41.0 °F 93% 30.03 in 4.0 mi Calm Calm - 0.05 in Rain Rain
11:55 PM 42.8 °F - 42.8 °F 100% 30.04 in 3.0 mi Calm Calm - 0.08 in Rain Light Rain